This is the latest recevied weather packets stored in our database for station/object KD9NSC. If no packets are shown the sender has not sent any weather packets the latest 10 day(s).
| Time | Temp. | Humidity | Pressure | Rain* | Wind** | Luminosity | Snow |
|---|---|---|---|---|---|---|---|
| 1777420832 | 14.44° C | 72% | 1013.7 hPa | 0 mm | - | 7 W/m² | - |
| 1777420528 | 14.44° C | 72% | 1013.8 hPa | 0 mm | - | 9 W/m² | - |
| 1777420224 | 14.44° C | 70% | 1014.3 hPa | 0 mm | - | 10 W/m² | - |
| 1777419920 | 14.44° C | 72% | 1014.3 hPa | 0 mm | - | 13 W/m² | - |
| 1777419617 | 14.44° C | 71% | 1014.3 hPa | 0 mm | - | 12 W/m² | - |
| 1777419316 | 14.44° C | 71% | 1014.5 hPa | 0 mm | - | 15 W/m² | - |
| 1777419014 | 15° C | 71% | 1014.5 hPa | 0 mm | - | 16 W/m² | - |
| 1777418708 | 15° C | 71% | 1014.6 hPa | 0 mm | - | 16 W/m² | - |
| 1777418405 | 15° C | 68% | 1014.6 hPa | 0 mm | - | 19 W/m² | - |
| 1777418101 | 15° C | 73% | 1014.6 hPa | 0 mm | - | 20 W/m² | - |
| 1777417797 | 15° C | 74% | 1014.4 hPa | 0 mm | - | 21 W/m² | - |
| 1777417493 | 15° C | 71% | 1014.5 hPa | 0 mm | - | 23 W/m² | - |
| 1777417189 | 15° C | 72% | 1014.6 hPa | 0 mm | - | 20 W/m² | - |
| 1777416885 | 15° C | 70% | 1014.5 hPa | 0 mm | - | 12 W/m² | - |
| 1777416580 | 15° C | 69% | 1014.3 hPa | 0 mm | - | 11 W/m² | - |
| 1777416277 | 15° C | 70% | 1014.3 hPa | 0 mm | - | 14 W/m² | - |
| 1777415976 | 15° C | 68% | 1014.4 hPa | 0 mm | - | 14 W/m² | - |
| 1777415672 | 15° C | 69% | 1014.4 hPa | 0 mm | - | 14 W/m² | - |
| 1777415367 | 15° C | 71% | 1014.5 hPa | 0 mm | - | 15 W/m² | - |
| 1777415062 | 15° C | 72% | 1014.4 hPa | 0 mm | - | 15 W/m² | - |
| 1777414762 | 15° C | 71% | 1014.5 hPa | 0 mm | - | 15 W/m² | - |
| 1777414458 | 15.56° C | 68% | 1014.1 hPa | 0 mm | - | 15 W/m² | - |
| 1777414157 | 15.56° C | 68% | 1014.1 hPa | 0 mm | - | 16 W/m² | - |
| 1777413853 | 15.56° C | 70% | 1014.4 hPa | 0 mm | - | 16 W/m² | - |
| 1777413548 | 15.56° C | 69% | 1014.8 hPa | 0 mm | - | 16 W/m² | - |
* Rain latest hour (hover to see other rain measurements)
** Current wind speed in m/s (hover to see current wind gust speed)